"Pseudo-MPEC" for P117YzK

Created 2020 Oct 23 5:07:25 UT using Find_Orb

Click here for an explanation of pseudo-MPECs

 
 Astrometry: 
     P117YzK  C2020 10 15%$$E[jAstrometryd7Oredacted;QF(#y[a(hH7cbwyl;B4x,9e8F51
     P117YzK  C2020 10 158U#O_Tug1NHrV7@H]y!F;wZclickm*tII2a$56=hereCe+T9SLJDF51
     P117YzK  C2020 10 15Gry*Ky_qn7R;udDl\p@for%\KZuXexplanation`y#-KVkwU+H#BF51

Station data:
(F51) Pan-STARRS 1, Haleakala  (N20.707235 W156.255910)  US/Hawaii.
   Observers N. Primak, A. Schultz, S. Watters, J. Thiel, T. Goggia. Measurer
   PS1 Science Consortium. 1.8-m Ritchey-Chrétien + CCD.

Orbital elements:  P117YzK
   Perihelion 2020 Jul 24.050658 +/- 134 TT =  1:12:56 (JD 2459054.550658)
Epoch 2020 Oct 15.0 TT = JDT 2459137.5   Earth MOID: 0.0584   AutoNEOCP
M  70.12022472 +/- 80               (J2000 ecliptic)
n   0.84533792 +/- 0.428            Peri.  298.69072 +/- 90
a   1.10776884 +/- 0.374            Node     9.85818 +/- 52
e   0.0487540 +/- 0.265             Incl.    3.12687 +/- 29
P   1.17/425.86d           H 26.2   G  0.15   U 12.2  SR
q 1.05376061 +/- 0.623    Q 1.16177707 +/- 24.1
From 3 observations 2020 Oct. 15 (57.2 min); mean residual 0".06
Residuals in arcseconds: 
201015 F51  .01+  .04+    201015 F51  .02-  .12-    201015 F51  .01+  .08+    

Ephemerides (geocentric):
Date (UTC) HH   RA              Dec         delta   r     elong  mag " sig PA
---- -- -- --  -------------   -----------  ------ ------ -----  --- ---- ---
2020 10 23 05  02 21 21.117   +26 26 36.91  .10735 1.0982 163.5 22.4  34d 163
2020 10 23 06  02 21 14.263   +26 27 05.97  .10738 1.0982 163.5 22.4  34d 163
2020 10 23 07  02 21 07.409   +26 27 34.92  .10741 1.0983 163.5 22.4  35d 163
2020 10 23 08  02 21 00.556   +26 28 03.78  .10744 1.0983 163.6 22.4  35d 163
2020 10 23 09  02 20 53.704   +26 28 32.53  .10747 1.0983 163.6 22.4  35d 163
2020 10 23 10  02 20 46.853   +26 29 01.19  .10750 1.0984 163.6 22.4  35d 163
2020 10 23 11  02 20 40.002   +26 29 29.75  .10753 1.0984 163.6 22.4  35d 163
2020 10 23 12  02 20 33.153   +26 29 58.20  .10756 1.0984 163.7 22.4  35d 163
2020 10 23 13  02 20 26.305   +26 30 26.56  .10759 1.0985 163.7 22.4  35d 163
2020 10 23 14  02 20 19.458   +26 30 54.82  .10763 1.0985 163.7 22.4  35d 163
2020 10 23 15  02 20 12.612   +26 31 22.97  .10766 1.0985 163.8 22.4  35d 163
2020 10 23 16  02 20 05.767   +26 31 51.03  .10769 1.0986 163.8 22.4  35d 163
2020 10 23 17  02 19 58.923   +26 32 18.99  .10772 1.0986 163.8 22.4  35d 163
2020 10 23 18  02 19 52.081   +26 32 46.85  .10775 1.0986 163.9 22.4  35d 163
2020 10 23 19  02 19 45.239   +26 33 14.60  .10778 1.0987 163.9 22.4  35d 163
2020 10 23 20  02 19 38.399   +26 33 42.26  .10781 1.0987 163.9 22.4  36d 163
2020 10 23 21  02 19 31.561   +26 34 09.82  .10784 1.0987 164.0 22.4  36d 163
2020 10 23 22  02 19 24.723   +26 34 37.28  .10787 1.0988 164.0 22.4  36d 163
2020 10 23 23  02 19 17.887   +26 35 04.64  .10790 1.0988 164.0 22.4  36d 164
2020 10 24 00  02 19 11.053   +26 35 31.90  .10794 1.0988 164.1 22.4  36d 164
2020 10 24 01  02 19 04.220   +26 35 59.06  .10797 1.0989 164.1 22.4  36d 164
2020 10 24 02  02 18 57.388   +26 36 26.13  .10800 1.0989 164.1 22.4  36d 164
2020 10 24 03  02 18 50.558   +26 36 53.09  .10803 1.0989 164.1 22.4  37d 164
2020 10 24 04  02 18 43.730   +26 37 19.95  .10806 1.0990 164.2 22.4  37d 164
2020 10 24 05  02 18 36.903   +26 37 46.72  .10810 1.0990 164.2 22.4  37d 164
2020 10 24 06  02 18 30.078   +26 38 13.38  .10813 1.0990 164.2 22.4  37d 164
2020 10 24 07  02 18 23.254   +26 38 39.95  .10816 1.0991 164.3 22.4  37d 164
2020 10 24 08  02 18 16.433   +26 39 06.41  .10819 1.0991 164.3 22.4  37d 163
2020 10 24 09  02 18 09.613   +26 39 32.78  .10823 1.0991 164.3 22.4  38d 163
2020 10 24 10  02 18 02.794   +26 39 59.05  .10826 1.0992 164.3 22.4  38d 163
2020 10 24 11  02 17 55.978   +26 40 25.22  .10829 1.0992 164.4 22.4  38d 163
2020 10 24 12  02 17 49.163   +26 40 51.29  .10832 1.0992 164.4 22.4  38d 163
2020 10 24 13  02 17 42.351   +26 41 17.26  .10836 1.0993 164.4 22.4  38d 163
2020 10 24 14  02 17 35.540   +26 41 43.13  .10839 1.0993 164.5 22.4  38d 163
2020 10 24 15  02 17 28.731   +26 42 08.90  .10842 1.0993 164.5 22.4  38d 163
2020 10 24 16  02 17 21.925   +26 42 34.58  .10846 1.0994 164.5 22.4  38d 163
2020 10 24 17  02 17 15.120   +26 43 00.15  .10849 1.0994 164.5 22.4  39d 163
2020 10 24 18  02 17 08.317   +26 43 25.63  .10852 1.0994 164.6 22.4  39d 163
2020 10 24 19  02 17 01.517   +26 43 51.01  .10856 1.0995 164.6 22.4  39d 163
2020 10 24 20  02 16 54.718   +26 44 16.29  .10859 1.0995 164.6 22.4  39d 163
2020 10 24 21  02 16 47.922   +26 44 41.47  .10863 1.0995 164.6 22.4  39d 163
2020 10 24 22  02 16 41.128   +26 45 06.55  .10866 1.0996 164.7 22.4  39d 163
2020 10 24 23  02 16 34.337   +26 45 31.54  .10869 1.0996 164.7 22.4  39d 163
2020 10 25 00  02 16 27.547   +26 45 56.42  .10873 1.0996 164.7 22.4  39d 163
2020 10 25 01  02 16 20.760   +26 46 21.21  .10876 1.0997 164.7 22.4  39d 163
2020 10 25 02  02 16 13.976   +26 46 45.90  .10880 1.0997 164.8 22.4  39d 163
2020 10 25 03  02 16 07.193   +26 47 10.49  .10883 1.0997 164.8 22.4  39d 163
2020 10 25 04  02 16 00.413   +26 47 34.98  .10887 1.0998 164.8 22.4  39d 163